Satellite-Ground Cal/Val Region Overpasses Predictions

Prediction of Satellite NPP Overpassing Cal/Val Region: PacNW

Region Location: (Latitude: 10.00, Longitude: 139.50) to (Latitude: 22.70, Longitude: 165.60).

Table of predicted overpasses for the next 14.0 days since TLE Epoch: 11/20/2014
Interval Starting Time Starting Location Ending Time Ending Location
1 11/21/2014 03:44:50 ( 10.04, 145.57) 11/21/2014 03:48:25 ( 22.66, 142.58)
2 11/21/2014 14:38:16 ( 11.94, 165.59) 11/21/2014 14:38:49 ( 10.00, 165.15)
3 11/21/2014 16:16:43 ( 22.68, 142.77) 11/21/2014 16:20:18 ( 10.05, 139.78)
4 11/22/2014 03:25:47 ( 10.04, 150.32) 11/22/2014 03:29:22 ( 22.66, 147.33)
5 11/22/2014 15:57:40 ( 22.67, 147.53) 11/22/2014 16:01:15 ( 10.05, 144.54)
6 11/23/2014 03:06:45 ( 10.04, 155.08) 11/23/2014 03:10:20 ( 22.67, 152.09)
7 11/23/2014 15:38:38 ( 22.67, 152.28) 11/23/2014 15:42:13 ( 10.04, 149.29)
8 11/24/2014 02:47:43 ( 10.05, 159.83) 11/24/2014 02:51:18 ( 22.67, 156.84)
9 11/24/2014 15:19:35 ( 22.66, 157.03) 11/24/2014 15:23:10 ( 10.04, 154.04)
10 11/25/2014 02:28:40 ( 10.06, 164.58) 11/25/2014 02:32:15 ( 22.68, 161.59)
11 11/25/2014 15:00:33 ( 22.65, 161.79) 11/25/2014 15:04:08 ( 10.03, 158.80)
12 11/26/2014 03:51:07 ( 10.02, 143.97) 11/26/2014 03:54:43 ( 22.70, 140.97)
13 11/26/2014 14:42:36 ( 18.77, 165.59) 11/26/2014 14:45:05 ( 10.02, 163.55)
14 11/26/2014 16:22:59 ( 22.69, 141.18) 11/26/2014 16:24:57 ( 15.77, 139.50)
15 11/27/2014 03:32:04 ( 10.03, 148.73) 11/27/2014 03:35:39 ( 22.65, 145.74)
16 11/27/2014 16:03:57 ( 22.68, 145.93) 11/27/2014 16:07:33 ( 10.00, 142.93)
17 11/28/2014 03:13:02 ( 10.04, 153.48) 11/28/2014 03:16:37 ( 22.66, 150.49)
18 11/28/2014 15:44:54 ( 22.67, 150.68) 11/28/2014 15:48:29 ( 10.05, 147.69)
19 11/29/2014 02:53:59 ( 10.05, 158.23) 11/29/2014 02:57:34 ( 22.67, 155.24)
20 11/29/2014 15:25:52 ( 22.66, 155.43) 11/29/2014 15:29:27 ( 10.03, 152.44)
21 11/30/2014 02:34:56 ( 10.01, 163.00) 11/30/2014 02:38:32 ( 22.69, 159.99)
22 11/30/2014 15:06:50 ( 22.64, 160.19) 11/30/2014 15:10:25 ( 10.02, 157.20)
23
